Regional Weather Roundup
Issued by NWS

Home | Current Version | Previous Version | Graphics & Text | Print | Product List | Glossary On
Versions: 1 2 3 4 5 6 7 8 9 10 11 12 13 14 15 16 17 18 19 20 21 22 23 24 25 26
000
ASUS45 KTFX 271210
RWRMT
MONTANA REGIONAL WEATHER ROUNDUP
NATIONAL WEATHER SERVICE GREAT FALLS MT
600 AM MDT THU JUL 27 2017

NOTE: "FAIR" INDICATES FEW OR NO CLOUDS BELOW 12000 FEET WITH NO
SIGNIFICANT WEATHER AND/OR OBSTRUCTIONS TO VISIBILITY.

MTZ001>007-043-271300-
WEST OF THE DIVIDE

CITY           SKY/WX    TMP DP  RH WIND       PRES   REMARKS
KALISPELL      PTCLDY    48  44  86 CALM      30.04R
MISSOULA       CLOUDY    63  47  55 CALM      30.08S
BUTTE          CLOUDY    52  44  74 SE3       30.22F
MULLAN PASS    CLEAR     65  30  27 W3        30.21S
DEER LODGE       N/A     63  48  59 CALM      30.18R
EUREKA           N/A     52  36  54 MISG      30.01S
HAMILTON         N/A     64  48  55 S14G20    30.11R
LIBBY            N/A     52  41  66 CALM      30.02R
$$

MTZ008-052>055-271300-
SOUTHWEST MONTANA

CITY           SKY/WX    TMP DP  RH WIND       PRES   REMARKS
BOZEMAN        CLOUDY    55  50  83 S8        30.16S
DILLON         PTCLDY    56  48  74 S8        30.21S
W YELLOWSTONE  CLOUDY    46  46 100 CALM      30.34R
ENNIS          CLEAR     54  46  76 SE7       30.27S
THREE FORKS      N/A     57  50  78 CALM      30.13R
$$

MTZ009-010-012-014-046-048-049-054-271300-
EAST SLOPES AND CENTRAL MONTANA

CITY           SKY/WX    TMP DP  RH WIND       PRES   REMARKS
CUT BANK       MOCLDY    56  40  55 NW8       30.04S
GREAT FALLS    CLOUDY    67  43  41 SW9       30.03R
HELENA         CLOUDY    66  50  56 CALM      30.11R
CHOTEAU          N/A     64  36  34 W6        30.07R
$$

MTZ011-013-016-021-045-047-050-051-271300-
NORTH CENTRAL MONTANA

CITY           SKY/WX    TMP DP  RH WIND       PRES   REMARKS
HAVRE          PTCLDY    65  45  48 E9        29.97R
N BAR RANCH    CLOUDY    66  46  48 W5        30.13R
CHINOOK          N/A     59  52  77 CALM      29.98S
$$

MTZ017>020-022>027-061-062-271300-
NORTHEAST MONTANA

CITY           SKY/WX    TMP DP  RH WIND       PRES   REMARKS
GLASGOW        CLEAR     68  49  50 E20       29.98R
JORDAN           N/A     67  49  52 CALM      29.98R
SIDNEY         PTCLDY    69  53  56 VRB7      30.06R
WOLF POINT     PTCLDY    71  51  49 E16       30.01S
MALTA          CLEAR     66  50  55 NE9       29.97R
PLENTYWOOD       N/A     66  55  68 SE8       30.07R
POPLAR           N/A     72  52  49 E15G23    30.03R
$$

MTZ028>42-056>058-271300-
SOUTHCENTRAL AND SOUTHEAST MONTANA

CITY           SKY/WX    TMP DP  RH WIND       PRES   REMARKS
BAKER          CLEAR     64  49  57 E10       30.08S
BILLINGS       CLOUDY    71  52  50 SW7       30.05S
LIVINGSTON     CLOUDY    60  49  66 NW12      30.15R
MILES CITY     MOCLDY    72  51  47 S9        30.01S
BIG TIMBER     CLEAR     64  50  59 SW15      30.14S
FORSYTH          N/A     70  52  52 CALM      30.00S
LAUREL           N/A     66  53  63 CALM      30.05F
$$

REGIONAL REPORTS...DAKOTAS

CITY           SKY/WX    TMP DP  RH WIND       PRES   REMARKS
WILLISTON      LGT RAIN  69  58  67 SE16      30.10S
MINOT          CLOUDY    69  58  67 S13G21    30.11F
DICKINSON      CLEAR     60  55  83 NE14      30.11R
BEACH            N/A     63  52  67 E12       30.11R
CROSBY           N/A     63  59  88 E6        30.09S
TIOGA            N/A     64  64 100 S18       30.12F FOG
WATFORD CITY     N/A     66  55  68 SE21G32   30.06F
BISMARCK       CLOUDY    67  58  72 N10       30.19R
GRAND FORKS    PTCLDY    58  57  97 CALM      30.11S
FARGO          CLEAR     58  56  93 NW5       30.12S
BUFFALO SD       N/A     67  55  65 SE9       30.04S
RAPID CITY     CLOUDY    67  58  72 SE6       30.16S
$$

REGIONAL REPORTS...WYOMING/IDAHO/WASHINGTON

CITY           SKY/WX    TMP DP  RH WIND       PRES   REMARKS
GILLETTE       CLEAR     67  58  72 S16       30.12F
SHERIDAN       PTCLDY    59  53  80 CALM      30.09S
BUFFALO WY     CLEAR     59  55  87 CALM      30.15S
CODY           CLOUDY    62  52  69 CALM      30.17S
YELLOWSTONE LA   N/A     44  44 100 CALM      30.40S
IDAHO FALLS    CLOUDY    53  53 100 N5        30.23S
BOISE          PTCLDY    69  53  56 NE6       30.08S
SPOKANE        PTCLDY    66  43  43 SE8       29.99R
$$

REGIONAL REPORTS...ALBERTA

CITY           SKY/WX    TMP DP  RH WIND       PRES   REMARKS
EDMONTON       CLEAR     52  52 100 NE2       29.90F
CALGARY        MOCLDY    57  43  58 SW5       29.97S
LETHBRIDGE     MOCLDY    50  41  71 W5        29.97R
MEDICINE HAT   CLEAR     70  48  46 VRB5      29.92S
WATERTON GATE    N/A     54  37  54 S6          N/A
CARDSTON         N/A     63  36  36 SW8         N/A
MILK RIVER       N/A     52  43  71 NW3         N/A
$$

REGIONAL REPORTS...SASKATCHEWAN

CITY           SKY/WX    TMP DP  RH WIND       PRES   REMARKS
SWIFT CURRENT  CLEAR     59  48  67 SE10      30.01S
REGINA         PTCLDY    57  52  82 SE12      30.06F
SASKATOON      CLEAR     54  52  94 SE2       30.03S
CYPRESS HILLS    N/A     61  43  51 SE7         N/A
VAL MARIE        N/A     66  50  55 E8          N/A
ROCKGLEN         N/A     64  52  63 SE9         N/A
ASSINIBOIA       N/A     52  52 100 S2          N/A
$$




USA.gov is the U.S. government's official web portal to all federal, state and local government web resources and services.